Location: ?????
(37.7324°N, 23.9257°E)
Time: 07:45:43
(UTC+00:00)

Nadezhda 3 Rocket - Pass Details

Date: 29 November 2020
Orbit: 956 x 1000 km, 82.9° (Epoch: 17 January)

Event Time Altitude Azimuth Distance (km) Brightness Sun altitude
Rises 04:44:05 0° 348° (NNW) 3,705 6.7 -7.1°
Reaches altitude 10° 04:46:40 10° 344° (NNW) 2,746 6.0 -6.7°
Maximum altitude 04:52:45 54° 269° (W) 1,168 4.2 -5.6°
Drops below altitude 10° 04:58:45 10° 193° (SSW) 2,700 6.5 -4.5°
Sets 05:01:17 0° 189° (S) 3,637 7.2 -4.0°
